Weather History for Hickory, NC

Change the Weather History Date:

Sunday, March 4, 2012

  Actual Average Record
Temperature  
Mean Temperature 42 °F -  
Max Temperature 50 °F 57 °F 81 °F (1976)
Min Temperature 33 °F 38 °F 18 °F (1960)
Degree Days  
Heating Degree Days 22    
Moisture  
Dew Point 20 °F    
Average Humidity 41    
Maximum Humidity 61    
Minimum Humidity 27    
Precipitation  
Precipitation 0.00 in - - ()
Sea Level Pressure  
Sea Level Pressure 29.80 in    
Wind  
Wind Speed 10 mph (WNW)    
Max Wind Speed 16 mph    
Max Gust Speed 28 mph    
Visibility 10 miles    
Events      
Averages and records for this station are not official NWS values.
T = Trace of Precipitation, MM = Missing Value Source: NWS Daily Summary

Daily Weather History Graph

Daily Weather History Graph

Search for Another Location

Airport:

Trip Planner

Search our weather history database for the weather conditions in past years. The results will help you decide how hot, cold, wet, or windy it might be!

Date:

Astronomy

Mar. 04, 2012 Rise Set
Actual Time 6:50 AM EST 6:23 PM EST
Civil Twilight 6:25 AM EST 6:49 PM EST
Nautical Twilight 5:55 AM EST 7:19 PM EST
Astronomical Twilight 5:26 AM EST 7:48 PM EST
Moon 2:41 PM EST (3/4) 4:03 AM EST (3/4)
Length of Visible Light 12h 24m
Length of Day
11h 33m
Waxing Gibbous, 83% of the Moon is Illuminated
Mar 4
Waxing Gibbous
Mar 8
Full
Mar 14
Last Quarter
Mar 22
New
Mar 30
First Quarter

Hourly Weather History & Observations

Time (EST) Temp. Windchill Dew Point Humidity Pressure Visibility Wind Dir Wind Speed Gust Speed Precip Events Conditions
12:53 AM 50.0 °F - 25.0 °F 38% 29.70 in 10.0 mi West 15.0 mph 25.3 mph 0.00 in   Overcast
1:53 AM 48.0 °F - 27.0 °F 44% 29.69 in 10.0 mi SW 3.5 mph - 0.00 in   Overcast
2:53 AM 48.0 °F - 23.0 °F 37% 29.65 in 10.0 mi NNW 6.9 mph - N/A   Overcast
3:53 AM 46.9 °F - 21.0 °F 36% 29.66 in 10.0 mi NW 6.9 mph - N/A   Overcast
4:53 AM 45.0 °F 40.6 °F 21.0 °F 39% 29.67 in 10.0 mi NW 8.1 mph - N/A   Clear
5:53 AM 42.1 °F 37.7 °F 21.9 °F 45% 29.69 in 10.0 mi NW 6.9 mph - N/A   Clear
6:53 AM 41.0 °F 35.2 °F 21.9 °F 47% 29.72 in 10.0 mi NW 9.2 mph - N/A   Clear
7:53 AM 42.1 °F 34.9 °F 21.9 °F 45% 29.75 in 10.0 mi NNW 13.8 mph 23.0 mph N/A   Clear
8:53 AM 44.1 °F 39.5 °F 19.9 °F 38% 29.77 in 10.0 mi NNW 8.1 mph 19.6 mph N/A   Clear
9:53 AM 46.0 °F 40.6 °F 19.9 °F 35% 29.77 in 10.0 mi NW 11.5 mph 18.4 mph N/A   Clear
10:18 AM 46.4 °F 41.1 °F 19.4 °F 34% 29.81 in 10.0 mi NW 11.5 mph 23.0 mph N/A   Partly Cloudy
10:53 AM 46.9 °F - 18.0 °F 32% 29.78 in 10.0 mi West 16.1 mph 21.9 mph N/A   Clear
11:53 AM 46.9 °F - 17.1 °F 30% 29.79 in 10.0 mi West 16.1 mph 24.2 mph N/A   Partly Cloudy
12:53 PM 46.9 °F - 17.1 °F 30% 29.78 in 10.0 mi West 16.1 mph 25.3 mph N/A   Clear
1:53 PM 46.0 °F 39.9 °F 14.0 °F 28% 29.80 in 10.0 mi West 13.8 mph 25.3 mph N/A   Scattered Clouds
2:53 PM 48.0 °F - 15.1 °F 27% 29.80 in 10.0 mi WNW 15.0 mph 25.3 mph N/A   Overcast
3:53 PM 45.0 °F 40.1 °F 15.1 °F 30% 29.82 in 10.0 mi West 9.2 mph 21.9 mph N/A   Mostly Cloudy
4:53 PM 44.1 °F 37.7 °F 17.1 °F 34% 29.86 in 10.0 mi West 12.7 mph 27.6 mph N/A   Clear
5:53 PM 41.0 °F 33.9 °F 21.9 °F 47% 29.89 in 10.0 mi West 12.7 mph - N/A   Clear
6:53 PM 39.0 °F 33.4 °F 21.0 °F 49% 29.92 in 10.0 mi West 8.1 mph - N/A   Clear
7:53 PM 35.1 °F 32.2 °F 23.0 °F 61% 29.94 in 10.0 mi SW 3.5 mph - N/A   Clear
8:53 PM 36.0 °F - 21.0 °F 55% 29.96 in 10.0 mi Calm Calm - N/A   Clear
9:53 PM 36.0 °F 32.1 °F 21.9 °F 57% 29.96 in 10.0 mi WSW 4.6 mph - N/A   Clear
10:53 PM 35.1 °F - 19.9 °F 54% 29.96 in 10.0 mi Calm Calm - N/A   Clear
11:53 PM 33.8 °F 30.8 °F 21.2 °F 60% 29.97 in 10.0 mi South 3.5 mph - N/A   Clear